CSC8792 ZHHH-ZUUU

Flight info

Callsign CSC8792
Flight time 1h 31m
Altitude 34100
Route ZHHH SID GUGAM W156 UPGUR W80 ATIVU V155 BONPI W231 EKOKA STAR ZUUU
Aircraft A320/M-V/N

Departure

Time 2026-04-29 13:27
Airport Wuhan Tianhe International Airport (ZHHH)

Arrival

Time 2026-04-29 14:59
Airport Chengdu Shuangliu International Airport (ZUUU)
Time Latitude Longitude Altitude Speed Heading
2026-04-29 13:10 30.77571 114.20536 109 ft 0 kts 223°
2026-04-29 13:20 30.77572 114.20537 109 ft 1 kts 223°
2026-04-29 13:20 30.77585 114.20550 109 ft 3 kts 222°
2026-04-29 13:20 30.77597 114.20563 106 ft 3 kts 231°
2026-04-29 13:20 30.77606 114.20582 109 ft 3 kts 266°
2026-04-29 13:21 30.77604 114.20603 108 ft 3 kts 298°
2026-04-29 13:21 30.77595 114.20620 107 ft 1 kts 311°
2026-04-29 13:21 30.77591 114.20625 106 ft 0 kts 311°
2026-04-29 13:23 30.77661 114.20527 109 ft 13 kts 296°
2026-04-29 13:24 30.77590 114.20385 108 ft 31 kts 220°
2026-04-29 13:24 30.77382 114.20178 106 ft 47 kts 222°
2026-04-29 13:24 30.77208 114.20001 106 ft 14 kts 220°
2026-04-29 13:24 30.77132 114.19925 106 ft 2 kts 220°
2026-04-29 13:25 30.77085 114.19854 105 ft 17 kts 265°
2026-04-29 13:25 30.77141 114.19762 104 ft 0 kts 309°
2026-04-29 13:26 30.77184 114.19701 103 ft 35 kts 312°
2026-04-29 13:27 30.77310 114.19731 105 ft 30 kts 40°
2026-04-29 13:27 30.77704 114.20129 107 ft 116 kts 41°
2026-04-29 13:27 30.78678 114.21163 536 ft 152 kts 44°
2026-04-29 13:27 30.79472 114.22105 1035 ft 177 kts 45°
2026-04-29 13:28 30.80130 114.22723 1360 ft 193 kts 30°
2026-04-29 13:28 30.81864 114.23705 2214 ft 223 kts 22°
2026-04-29 13:28 30.82835 114.24201 2995 ft 227 kts 22°
2026-04-29 13:28 30.84295 114.24949 4231 ft 232 kts 22°
2026-04-29 13:29 30.86402 114.25348 5828 ft 237 kts 352°
2026-04-29 13:29 30.87487 114.25032 6658 ft 239 kts 336°
2026-04-29 13:29 30.88854 114.23978 7863 ft 242 kts 313°
2026-04-29 13:29 30.89980 114.22502 9101 ft 245 kts 310°
2026-04-29 13:30 30.91116 114.20997 10296 ft 249 kts 310°
2026-04-29 13:30 30.92276 114.19467 11454 ft 254 kts 311°
2026-04-29 13:30 30.93460 114.17912 12571 ft 259 kts 311°
2026-04-29 13:30 30.94668 114.16330 13663 ft 264 kts 311°
2026-04-29 13:31 30.95832 114.14655 14702 ft 269 kts 299°
2026-04-29 13:31 30.96341 114.12560 15684 ft 274 kts 270°
2026-04-29 13:31 30.95906 114.10358 16372 ft 293 kts 241°
2026-04-29 13:31 30.94533 114.08478 16770 ft 319 kts 223°
2026-04-29 13:32 30.92814 114.06687 17148 ft 343 kts 221°
2026-04-29 13:32 30.90928 114.04824 17442 ft 368 kts 220°
2026-04-29 13:32 30.88904 114.02849 17672 ft 391 kts 220°
2026-04-29 13:32 30.86767 114.00746 17945 ft 411 kts 221°
2026-04-29 13:33 30.84601 113.98584 18566 ft 419 kts 221°
2026-04-29 13:33 30.82382 113.96341 19291 ft 424 kts 221°
2026-04-29 13:33 30.80152 113.94064 20016 ft 429 kts 221°
2026-04-29 13:33 30.77899 113.91755 20722 ft 434 kts 221°
2026-04-29 13:34 30.75623 113.89425 21369 ft 438 kts 221°
2026-04-29 13:34 30.73323 113.87078 21979 ft 442 kts 221°
2026-04-29 13:34 30.70995 113.84713 22572 ft 446 kts 221°
2026-04-29 13:34 30.68722 113.82245 23139 ft 450 kts 227°
2026-04-29 13:35 30.66668 113.79486 23698 ft 453 kts 230°
2026-04-29 13:35 30.64619 113.76686 24249 ft 457 kts 230°
2026-04-29 13:35 30.62551 113.73865 24784 ft 461 kts 230°
2026-04-29 13:35 30.60463 113.71021 25307 ft 464 kts 230°
2026-04-29 13:36 30.58359 113.68158 25820 ft 468 kts 230°
2026-04-29 13:36 30.56241 113.65275 26318 ft 471 kts 230°
2026-04-29 13:36 30.54104 113.62369 26802 ft 475 kts 230°
2026-04-29 13:36 30.51957 113.59454 27365 ft 476 kts 230°
2026-04-29 13:37 30.49810 113.56544 28078 ft 474 kts 230°
2026-04-29 13:37 30.47671 113.53649 28769 ft 472 kts 230°
2026-04-29 13:37 30.45565 113.50802 29457 ft 470 kts 230°
2026-04-29 13:37 30.43435 113.47927 30140 ft 469 kts 230°
2026-04-29 13:38 30.41311 113.45064 30810 ft 468 kts 230°
2026-04-29 13:38 30.39194 113.42208 31462 ft 466 kts 230°
2026-04-29 13:38 30.37082 113.39357 32129 ft 465 kts 230°
2026-04-29 13:38 30.34980 113.36520 32756 ft 464 kts 230°
2026-04-29 13:39 30.32881 113.33683 33385 ft 462 kts 230°
2026-04-29 13:39 30.30789 113.30858 33905 ft 463 kts 230°
2026-04-29 13:39 30.28696 113.28034 34072 ft 462 kts 230°
2026-04-29 13:39 30.26607 113.25218 34112 ft 461 kts 230°
2026-04-29 13:40 30.23385 113.18917 34109 ft 459 kts 250°
2026-04-29 13:40 30.22183 113.11701 34109 ft 459 kts 269°
2026-04-29 13:41 30.22585 113.04335 34109 ft 459 kts 274°
2026-04-29 13:41 30.23067 112.96973 34109 ft 459 kts 274°
2026-04-29 13:42 30.23541 112.89603 34111 ft 459 kts 274°
2026-04-29 13:42 30.24007 112.82277 34112 ft 460 kts 274°
2026-04-29 13:43 30.24469 112.74908 34112 ft 459 kts 274°
2026-04-29 13:43 30.24931 112.67545 34109 ft 459 kts 274°
2026-04-29 13:44 30.25392 112.60167 34107 ft 459 kts 274°
2026-04-29 13:44 30.25851 112.52808 34106 ft 459 kts 274°
2026-04-29 13:45 30.26417 112.45473 34104 ft 459 kts 280°
2026-04-29 13:45 30.28249 112.38414 34105 ft 459 kts 289°
2026-04-29 13:46 30.30366 112.31419 34109 ft 463 kts 289°
2026-04-29 13:46 30.32470 112.24403 34109 ft 465 kts 289°
2026-04-29 13:47 30.34581 112.17320 34109 ft 465 kts 289°
2026-04-29 13:47 30.36693 112.10238 34109 ft 465 kts 289°
2026-04-29 13:48 30.38792 112.03149 34109 ft 465 kts 289°
2026-04-29 13:48 30.40894 111.96058 34109 ft 465 kts 289°
2026-04-29 13:49 30.42998 111.88969 34109 ft 465 kts 289°
2026-04-29 13:49 30.45092 111.81882 34108 ft 465 kts 289°
2026-04-29 13:50 30.47176 111.74783 34106 ft 465 kts 287°
2026-04-29 13:50 30.48150 111.67408 34104 ft 465 kts 269°
2026-04-29 13:51 30.47774 111.59933 34101 ft 465 kts 266°
2026-04-29 13:51 30.47375 111.52459 34099 ft 465 kts 266°
2026-04-29 13:52 30.46695 111.45064 34098 ft 465 kts 261°
2026-04-29 13:52 30.45672 111.37622 34099 ft 465 kts 261°
2026-04-29 13:53 30.44668 111.30271 34097 ft 465 kts 261°
2026-04-29 13:53 30.44611 111.22813 34092 ft 465 kts 278°
2026-04-29 13:54 30.46220 111.15561 34090 ft 465 kts 286°
2026-04-29 13:54 30.47990 111.08344 34087 ft 466 kts 285°
2026-04-29 13:55 30.49753 111.01113 34085 ft 467 kts 285°
2026-04-29 13:55 30.51515 110.93859 34079 ft 468 kts 285°
2026-04-29 13:56 30.53286 110.86584 34084 ft 469 kts 285°
2026-04-29 13:56 30.55055 110.79298 34075 ft 471 kts 285°
2026-04-29 13:57 30.56821 110.71973 34078 ft 472 kts 285°
2026-04-29 13:57 30.58588 110.64620 34084 ft 473 kts 285°
2026-04-29 13:58 30.60349 110.57306 34089 ft 473 kts 285°
2026-04-29 13:58 30.62116 110.49945 34113 ft 473 kts 285°
2026-04-29 13:59 30.63875 110.42594 34114 ft 472 kts 285°
2026-04-29 13:59 30.65619 110.35248 34115 ft 472 kts 285°
2026-04-29 14:00 30.67362 110.27908 34104 ft 471 kts 285°
2026-04-29 14:00 30.69105 110.20558 34092 ft 473 kts 285°
2026-04-29 14:01 30.70846 110.13194 34098 ft 473 kts 285°
2026-04-29 14:01 30.72586 110.05827 34101 ft 473 kts 285°
2026-04-29 14:02 30.74324 109.98452 34101 ft 473 kts 285°
2026-04-29 14:02 30.76051 109.91120 34102 ft 474 kts 285°
2026-04-29 14:03 30.77788 109.83724 34101 ft 474 kts 285°
2026-04-29 14:03 30.79508 109.76330 34116 ft 473 kts 285°
2026-04-29 14:04 30.81217 109.68935 34097 ft 474 kts 285°
2026-04-29 14:04 30.82936 109.61521 34099 ft 475 kts 285°
2026-04-29 14:05 30.84655 109.54098 34129 ft 474 kts 285°
2026-04-29 14:05 30.86361 109.46696 34122 ft 473 kts 285°
2026-04-29 14:06 30.88064 109.39302 34133 ft 472 kts 285°
2026-04-29 14:06 30.89126 109.31798 34118 ft 471 kts 270°
2026-04-29 14:07 30.89052 109.24169 34123 ft 471 kts 269°
2026-04-29 14:07 30.89002 109.16552 34121 ft 470 kts 269°
2026-04-29 14:08 30.88960 109.08998 34120 ft 470 kts 269°
2026-04-29 14:08 30.88905 109.01395 34119 ft 469 kts 269°
2026-04-29 14:09 30.88841 108.93792 34119 ft 469 kts 269°
2026-04-29 14:09 30.88765 108.86198 34117 ft 469 kts 269°
2026-04-29 14:10 30.88684 108.78601 34112 ft 470 kts 269°
2026-04-29 14:10 30.88598 108.71002 34118 ft 470 kts 269°
2026-04-29 14:11 30.88508 108.63402 34121 ft 469 kts 269°
2026-04-29 14:11 30.88414 108.55806 34123 ft 469 kts 269°
2026-04-29 14:12 30.88313 108.48212 34126 ft 469 kts 269°
2026-04-29 14:12 30.88218 108.40621 34125 ft 469 kts 269°
2026-04-29 14:13 30.88121 108.33091 34123 ft 468 kts 269°
2026-04-29 14:13 30.88018 108.25509 34108 ft 469 kts 269°
2026-04-29 14:14 30.87908 108.17906 34102 ft 470 kts 269°
2026-04-29 14:14 30.87794 108.10307 34116 ft 469 kts 269°
2026-04-29 14:15 30.87663 108.02713 34119 ft 469 kts 269°
2026-04-29 14:15 30.87536 107.95132 34111 ft 468 kts 269°
2026-04-29 14:16 30.87412 107.87546 34102 ft 469 kts 269°
2026-04-29 14:16 30.87278 107.79962 34109 ft 469 kts 269°
2026-04-29 14:17 30.87134 107.72373 34112 ft 468 kts 269°
2026-04-29 14:17 30.86995 107.64795 34103 ft 469 kts 269°
2026-04-29 14:18 30.86856 107.57262 34109 ft 468 kts 269°
2026-04-29 14:18 30.86704 107.49685 34108 ft 468 kts 269°
2026-04-29 14:19 30.86548 107.42106 34107 ft 468 kts 269°
2026-04-29 14:19 30.86358 107.34527 34107 ft 468 kts 268°
2026-04-29 14:20 30.86019 107.26964 34112 ft 468 kts 266°
2026-04-29 14:20 30.85641 107.19409 34113 ft 467 kts 267°
2026-04-29 14:21 30.85352 107.13133 34103 ft 468 kts 267°
2026-04-29 14:21 30.84959 107.04287 34104 ft 468 kts 267°
2026-04-29 14:22 30.84675 106.98007 34112 ft 468 kts 267°
2026-04-29 14:22 30.84328 106.90453 34113 ft 467 kts 267°
2026-04-29 14:23 30.83970 106.82910 34110 ft 467 kts 267°
2026-04-29 14:23 30.83552 106.74142 34108 ft 467 kts 266°
2026-04-29 14:24 30.83248 106.67823 34105 ft 467 kts 266°
2026-04-29 14:24 30.82883 106.60280 34101 ft 467 kts 266°
2026-04-29 14:25 30.82513 106.52783 34099 ft 467 kts 266°
2026-04-29 14:25 30.81984 106.45253 34102 ft 467 kts 259°
2026-04-29 14:26 30.80644 106.37858 34103 ft 467 kts 258°
2026-04-29 14:26 30.79304 106.30468 34105 ft 467 kts 258°
2026-04-29 14:27 30.77956 106.23082 34105 ft 467 kts 258°
2026-04-29 14:28 30.75926 106.12008 34103 ft 467 kts 258°
2026-04-29 14:28 30.74569 106.04636 34104 ft 467 kts 258°
2026-04-29 14:29 30.73311 105.97232 34102 ft 467 kts 260°
2026-04-29 14:29 30.72307 105.89787 34101 ft 466 kts 262°
2026-04-29 14:30 30.71348 105.82378 34099 ft 467 kts 261°
2026-04-29 14:30 30.70312 105.74937 34098 ft 466 kts 261°
2026-04-29 14:30 30.69763 105.71301 34075 ft 446 kts 259°
2026-04-29 14:31 30.69204 105.67783 34108 ft 441 kts 259°
2026-04-29 14:31 30.68159 105.60826 34109 ft 434 kts 261°
2026-04-29 14:32 30.67191 105.53972 34109 ft 425 kts 261°
2026-04-29 14:32 30.66715 105.50629 34108 ft 414 kts 261°
2026-04-29 14:32 30.66238 105.47392 34107 ft 399 kts 260°
2026-04-29 14:33 30.65334 105.40933 34111 ft 415 kts 261°
2026-04-29 14:33 30.64885 105.37586 34017 ft 427 kts 261°
2026-04-29 14:33 30.64411 105.34126 33762 ft 442 kts 261°
2026-04-29 14:33 30.63904 105.30546 33537 ft 455 kts 261°
2026-04-29 14:34 30.63314 105.26915 33278 ft 460 kts 255°
2026-04-29 14:34 30.62285 105.23395 33028 ft 462 kts 246°
2026-04-29 14:34 30.60795 105.20091 32781 ft 463 kts 238°
2026-04-29 14:34 30.58910 105.17119 32532 ft 464 kts 229°
2026-04-29 14:35 30.56792 105.14288 32280 ft 465 kts 229°
2026-04-29 14:35 30.54673 105.11454 32030 ft 466 kts 229°
2026-04-29 14:35 30.52548 105.08609 31782 ft 466 kts 229°
2026-04-29 14:35 30.50422 105.05765 31529 ft 467 kts 229°
2026-04-29 14:36 30.48290 105.02915 31279 ft 468 kts 229°
2026-04-29 14:36 30.46157 105.00065 31028 ft 468 kts 229°
2026-04-29 14:36 30.44019 104.97213 30777 ft 469 kts 229°
2026-04-29 14:36 30.41879 104.94358 30531 ft 469 kts 230°
2026-04-29 14:37 30.39946 104.91318 30278 ft 469 kts 239°
2026-04-29 14:37 30.38436 104.87969 30027 ft 469 kts 247°
2026-04-29 14:37 30.37345 104.84414 29776 ft 470 kts 252°
2026-04-29 14:37 30.36335 104.80813 29524 ft 470 kts 252°
2026-04-29 14:38 30.35320 104.77207 29275 ft 471 kts 252°
2026-04-29 14:38 30.34301 104.73603 29025 ft 471 kts 252°
2026-04-29 14:38 30.33280 104.69999 28766 ft 472 kts 252°
2026-04-29 14:38 30.32252 104.66387 28513 ft 473 kts 252°
2026-04-29 14:39 30.31221 104.62772 28282 ft 473 kts 252°
2026-04-29 14:39 30.30190 104.59155 28024 ft 473 kts 252°
2026-04-29 14:39 30.29172 104.55587 27774 ft 474 kts 252°
2026-04-29 14:39 30.28196 104.51957 26924 ft 474 kts 256°
2026-04-29 14:40 30.27646 104.48203 26311 ft 474 kts 265°
2026-04-29 14:40 30.27464 104.44388 26078 ft 476 kts 267°
2026-04-29 14:40 30.27290 104.40562 25979 ft 477 kts 266°
2026-04-29 14:40 30.27096 104.36729 26011 ft 478 kts 266°
2026-04-29 14:41 30.26897 104.32898 25737 ft 476 kts 266°
2026-04-29 14:41 30.26699 104.29090 24188 ft 472 kts 266°
2026-04-29 14:41 30.26506 104.25314 22565 ft 467 kts 266°
2026-04-29 14:41 30.26320 104.21600 21044 ft 458 kts 266°
2026-04-29 14:42 30.26142 104.17959 19561 ft 449 kts 267°
2026-04-29 14:42 30.25971 104.14392 18177 ft 438 kts 267°
2026-04-29 14:42 30.26063 104.10942 17033 ft 423 kts 278°
2026-04-29 14:42 30.26719 104.07715 16465 ft 399 kts 289°
2026-04-29 14:43 30.27694 104.04859 16359 ft 366 kts 292°
2026-04-29 14:43 30.28613 104.02228 16216 ft 343 kts 291°
2026-04-29 14:43 30.29208 103.99626 16051 ft 331 kts 271°
2026-04-29 14:43 30.28824 103.97068 15886 ft 320 kts 246°
2026-04-29 14:44 30.27552 103.95023 15728 ft 312 kts 220°
2026-04-29 14:44 30.25732 103.93803 15576 ft 304 kts 202°
2026-04-29 14:44 30.23806 103.92902 15425 ft 291 kts 202°
2026-04-29 14:44 30.21979 103.92063 15280 ft 274 kts 202°
2026-04-29 14:45 30.20229 103.91262 14813 ft 271 kts 202°
2026-04-29 14:45 30.18480 103.90459 14319 ft 269 kts 202°
2026-04-29 14:45 30.16756 103.89661 13864 ft 266 kts 202°
2026-04-29 14:45 30.15051 103.88867 13419 ft 263 kts 202°
2026-04-29 14:46 30.13364 103.88084 12978 ft 260 kts 202°
2026-04-29 14:46 30.11725 103.87267 12656 ft 251 kts 213°
2026-04-29 14:46 30.10637 103.85844 12593 ft 234 kts 251°
2026-04-29 14:46 30.10523 103.84016 12348 ft 229 kts 286°
2026-04-29 14:47 30.11080 103.82339 11996 ft 219 kts 292°
2026-04-29 14:47 30.11654 103.80744 11659 ft 211 kts 292°
2026-04-29 14:47 30.12205 103.79215 11348 ft 201 kts 292°
2026-04-29 14:47 30.12727 103.77762 11075 ft 192 kts 292°
2026-04-29 14:48 30.13259 103.76373 10781 ft 187 kts 301°
2026-04-29 14:48 30.14193 103.75385 10506 ft 183 kts 334°
2026-04-29 14:48 30.15416 103.75132 10251 ft 179 kts
2026-04-29 14:48 30.16585 103.75565 10049 ft 174 kts 21°
2026-04-29 14:49 30.17682 103.76075 9813 ft 168 kts 20°
2026-04-29 14:49 30.18745 103.76566 9555 ft 162 kts 20°
2026-04-29 14:49 30.19789 103.77048 9326 ft 161 kts 20°
2026-04-29 14:49 30.20828 103.77528 9097 ft 161 kts 20°
2026-04-29 14:50 30.21866 103.78008 8869 ft 160 kts 20°
2026-04-29 14:50 30.22899 103.78485 8649 ft 160 kts 20°
2026-04-29 14:50 30.23927 103.78960 8427 ft 159 kts 20°
2026-04-29 14:50 30.24952 103.79437 8198 ft 158 kts 20°
2026-04-29 14:51 30.25973 103.79911 7951 ft 157 kts 20°
2026-04-29 14:51 30.26988 103.80381 7728 ft 157 kts 20°
2026-04-29 14:51 30.28004 103.80851 7507 ft 157 kts 20°
2026-04-29 14:51 30.29016 103.81319 7303 ft 157 kts 20°
2026-04-29 14:52 30.30027 103.81787 7093 ft 156 kts 20°
2026-04-29 14:52 30.31034 103.82253 6886 ft 156 kts 20°
2026-04-29 14:52 30.32038 103.82717 6679 ft 155 kts 20°
2026-04-29 14:52 30.33038 103.83180 6472 ft 155 kts 20°
2026-04-29 14:53 30.34034 103.83641 6269 ft 154 kts 20°
2026-04-29 14:53 30.35028 103.84102 6064 ft 154 kts 20°
2026-04-29 14:53 30.36018 103.84560 5864 ft 153 kts 20°
2026-04-29 14:53 30.37006 103.85018 5657 ft 153 kts 20°
2026-04-29 14:54 30.37991 103.85474 5455 ft 152 kts 20°
2026-04-29 14:54 30.38973 103.85930 5252 ft 152 kts 20°
2026-04-29 14:54 30.39952 103.86383 5045 ft 151 kts 20°
2026-04-29 14:54 30.40927 103.86836 4852 ft 151 kts 20°
2026-04-29 14:55 30.41900 103.87287 4650 ft 150 kts 20°
2026-04-29 14:55 30.42859 103.87732 4452 ft 150 kts 20°
2026-04-29 14:55 30.43827 103.88181 4250 ft 150 kts 20°
2026-04-29 14:55 30.44794 103.88629 4054 ft 150 kts 20°
2026-04-29 14:56 30.45757 103.89076 3850 ft 149 kts 20°
2026-04-29 14:56 30.46718 103.89523 3659 ft 148 kts 20°
2026-04-29 14:56 30.47673 103.89966 3462 ft 148 kts 20°
2026-04-29 14:56 30.48627 103.90409 3263 ft 147 kts 20°
2026-04-29 14:57 30.49577 103.90851 3067 ft 147 kts 20°
2026-04-29 14:57 30.50525 103.91291 2875 ft 147 kts 20°
2026-04-29 14:57 30.51471 103.91731 2679 ft 146 kts 20°
2026-04-29 14:57 30.52413 103.92169 2485 ft 146 kts 20°
2026-04-29 14:58 30.53354 103.92606 2303 ft 145 kts 20°
2026-04-29 14:58 30.54289 103.93041 2090 ft 145 kts 20°
2026-04-29 14:58 30.55219 103.93484 1899 ft 145 kts 21°
2026-04-29 14:58 30.56145 103.93942 1733 ft 145 kts 19°
2026-04-29 14:59 30.57071 103.94350 1647 ft 134 kts 20°
2026-04-29 14:59 30.57793 103.94682 1647 ft 87 kts 20°
2026-04-29 14:59 30.58198 103.94862 1646 ft 37 kts 22°
2026-04-29 14:59 30.58241 103.94884 1646 ft 0 kts 25°
2026-04-29 15:00 30.58305 103.94920 1646 ft 36 kts 26°
2026-04-29 15:00 30.58487 103.95067 1646 ft 23 kts 47°
2026-04-29 15:00 30.58589 103.95210 1647 ft 24 kts 55°
2026-04-29 15:00 30.58721 103.95326 1647 ft 25 kts 21°
2026-04-29 15:01 30.58887 103.95403 1647 ft 27 kts 22°
2026-04-29 15:01 30.59140 103.95525 1647 ft 39 kts 22°
2026-04-29 15:01 30.59343 103.95616 1647 ft 32 kts 17°
2026-04-29 15:01 30.59470 103.95689 1647 ft 15 kts 62°
2026-04-29 15:02 30.59510 103.95771 1647 ft 6 kts 43°
2026-04-29 15:02 30.59521 103.95821 1647 ft 7 kts 107°
2026-04-29 15:02 30.59513 103.95850 1647 ft 1 kts 108°
2026-04-29 15:02 30.59512 103.95854 1647 ft 0 kts 108°